Location: Ciechanow
(52.8812°N, 20.6195°E)
Time: 16:27:26
(UTC+01:00)

ISS - Pass Details

Date: 27 January 2019
Orbit: 403 x 411 km, 51.6° (Epoch: 19 February)

Event Time Altitude Azimuth Distance (km) Brightness Sun altitude
Rises 18:23:17 0° 245° (WSW) 2,332 1.3 -19.5°
Reaches altitude 10° 18:25:24 10° 240° (WSW) 1,474 0.0 -19.8°
Enters shadow 18:28:21 49° 183° (S) 537 -3.3 -20.3°
